Regional Weather Roundup
Issued by NWS Albany, NY

Home | Current Version | Previous Version | Text Only | Print | Product List | Glossary On
Versions: 1 2 3 4 5 6 7 8 9 10 11 12 13 14 15 16 17 18 19 20 21 22 23 24 25 26 27 28 29 30 31 32 33 34 35 36 37 38 39 40 41 42 43 44 45 46
000
ASUS41 KALY 290810
RWRALY

NEW YORK STATE HOURLY WEATHER ROUNDUP
NATIONAL WEATHER SERVICE ALBANY NY
300 AM EST THU JAN 29 2015

NOTE: "FAIR" INDICATES FEW OR NO CLOUDS BELOW 12,000 FEET WITH NO
SIGNIFICANT WEATHER AND/OR NO OBSTRUCTIONS TO VISIBILITY.

NYZ032-033-038>043-046>054-057>066-NYZ062>081-290900-
EAST


CITY           SKY/WX    TMP DP  RH WIND       PRES   REMARKS
ALBANY         FAIR       1  -5  75 CALM      30.34F
GLENS FALLS    MOCLDY    -7 -13  75 CALM      30.35S
POUGHKEEPSIE   CLEAR      1  -5  75 SW3       30.33R
NEWBURGH       CLEAR      5  -2  72 CALM      30.30R
MONTGOMERY     CLEAR     -1  -6  79 CALM      30.30R
WHITE PLAINS   PTCLDY    17  -2  43 N13       30.26R WCI   4
ISLIP          CLEAR     19   3  49 N12       30.26S WCI   7
NEW YORK CITY  CLEAR     22   7  52 N6        30.31R WCI  14
CENTRAL PARK   CLEAR     21   2  43 VRB5      30.32R WCI  15
$$

NYZ005>009-017-018-044>046-055-056-290900-
CENTRAL


CITY           SKY/WX    TMP DP  RH WIND       PRES   REMARKS
FULTON         PTCLDY     2  -3  80 E3        30.29F
SYRACUSE       PTCLDY     3   0  87 E6        30.30F WCI  -8
ROME           PTCLDY     1  -7  68 E6        30.34F WCI -10
ELMIRA         FAIR      -7 -11  83 CALM      30.29F
BINGHAMTON     PTCLDY     8   4  83 SE5       30.22S WCI   0
MONTICELLO     PTCLDY     9   0  66 W6        30.22S WCI  -1
$$

NYZ026>034-041>043-290900-
NORTH


CITY           SKY/WX    TMP DP  RH WIND       PRES   REMARKS
WATERTOWN      PTCLDY    -1  -7  75 CALM      30.29S
FORT DRUM      NOT AVBL
MASSENA        PTCLDY    -5 -11  75 CALM      30.31S
SARANAC LAKE   PTCLDY   -16 -20  82 CALM      30.19F
PLATTSBURGH    PTCLDY    -1  -6  79 CALM      30.33R
$$

NYZ001>004-010>016-019>021-290900-
WEST


CITY           SKY/WX    TMP DP  RH WIND       PRES   REMARKS
NIAGARA FALLS  PTCLDY    13   8  81 E3        30.22F
BUFFALO        MOCLDY    13   3  64 SE6       30.22F WCI   4
DUNKIRK        PTCLDY    11   7  84 CALM      30.21F
JAMESTOWN      MOCLDY    14   3  62 S7        30.15S WCI   4
WELLSVILLE     PTCLDY    11  -2  56 CALM      30.17S
ROCHESTER      PTCLDY     2  -3  80 W5        30.27S WCI  -8
PENN YAN       PTCLDY     6   2  83 SW7       30.25F WCI  -6
$$

             KEY
       WCI = WIND CHILL INDEX
       VSB = VISIBILITY
       HX  = HEAT INDEX
$$



USA.gov is the U.S. government's official web portal to all federal, state and local government web resources and services.